TimeWET,TemperatureF,Dew PointF,Humidity,Sea Level PressureIn,VisibilityMPH,Wind Direction,Wind SpeedMPH,Gust SpeedMPH,PrecipitationIn,Events,Conditions,WindDirDegrees,DateUTC
12:00 AM,59,49,60,30.08,3,Calm,Calm,,,,,,2011-11-10 00:00:00
12:00 AM,59.0,48.2,67,30.09,-9999.0,Calm,Calm,-,N/A,,Unknown,0,2011-11-10 00:00:00
12:30 AM,57.2,50.0,77,30.09,3.7,SSE,1.2,-,N/A,,Unknown,150,2011-11-10 00:30:00
1:00 AM,59.0,48.2,67,30.06,5.0,Calm,Calm,-,N/A,,Unknown,0,2011-11-10 01:00:00
1:30 AM,59.0,48.2,67,30.06,5.6,South,3.5,-,N/A,,Unknown,170,2011-11-10 01:30:00
2:00 AM,57.2,48.2,72,30.06,5.6,East,3.5,-,N/A,,Unknown,100,2011-11-10 02:00:00
2:30 AM,57.2,50.0,77,30.06,5.0,ENE,3.5,-,N/A,,Unknown,70,2011-11-10 02:30:00
3:00 AM,55.4,50.0,82,30.06,5.6,ESE,3.5,-,N/A,,Unknown,120,2011-11-10 03:00:00
3:30 AM,53.6,50.0,88,30.06,3.1,East,3.5,-,N/A,,Unknown,100,2011-11-10 03:30:00
4:00 AM,53.6,50.0,88,30.06,4.3,ESE,3.5,-,N/A,,Unknown,110,2011-11-10 04:00:00
4:30 AM,53.6,50.0,88,30.06,6.2,SSE,2.3,-,N/A,,Unknown,150,2011-11-10 04:30:00
5:00 AM,55.4,48.2,77,30.06,-9999.0,ESE,2.3,-,N/A,,Clear,120,2011-11-10 05:00:00
5:30 AM,51.8,48.2,88,30.06,5.6,ENE,4.6,-,N/A,,Unknown,70,2011-11-10 05:30:00
6:00 AM,53,48,78,30.07,6,ENE,3.5,,,,,70,2011-11-10 06:00:00
6:00 AM,51.8,48.2,88,30.06,5.6,ENE,3.5,-,N/A,,Unknown,70,2011-11-10 06:00:00
6:30 AM,51.8,48.2,88,30.06,5.6,East,3.5,-,N/A,,Unknown,100,2011-11-10 06:30:00
7:00 AM,51.8,48.2,88,30.06,5.6,East,4.6,-,N/A,,Unknown,100,2011-11-10 07:00:00
7:30 AM,53.6,48.2,82,30.06,5.6,East,4.6,-,N/A,,Unknown,80,2011-11-10 07:30:00
8:00 AM,57.2,50.0,77,30.06,5.0,East,4.6,-,N/A,,Unknown,100,2011-11-10 08:00:00
8:30 AM,64.4,50.0,59,30.09,5.0,Variable,2.3,-,N/A,,Unknown,0,2011-11-10 08:30:00
9:00 AM,68,51,44,30.05,4,ENE,2.3,,,,Clear,70,2011-11-10 09:00:00
9:00 AM,68.0,51.8,56,30.09,4.3,Variable,2.3,-,N/A,,Unknown,0,2011-11-10 09:00:00
9:30 AM,69.8,51.8,53,30.09,5.0,NNE,3.5,-,N/A,,Unknown,30,2011-11-10 09:30:00
10:00 AM,73.4,51.8,47,30.09,3.1,North,3.5,-,N/A,,Unknown,10,2011-11-10 10:00:00
10:30 AM,75.2,50.0,41,30.09,5.0,ENE,3.5,-,N/A,,Unknown,70,2011-11-10 10:30:00
11:00 AM,77.0,51.8,41,30.09,4.3,ENE,4.6,-,N/A,,Unknown,60,2011-11-10 11:00:00
11:30 AM,77.0,48.2,36,30.09,5.6,NE,5.8,-,N/A,,Unknown,40,2011-11-10 11:30:00
12:00 PM,78.8,50.0,36,30.06,5.6,ENE,4.6,-,N/A,,Unknown,60,2011-11-10 12:00:00
12:30 PM,80.6,50.0,34,30.06,5.6,East,4.6,-,N/A,,Unknown,80,2011-11-10 12:30:00
1:00 PM,82.4,48.2,30,30.04,5.6,NNE,5.8,-,N/A,,Unknown,30,2011-11-10 13:00:00
1:30 PM,82.4,46.4,28,30.04,-9999.0,NNE,3.5,-,N/A,,Clear,30,2011-11-10 13:30:00
2:00 PM,84.2,42.8,23,30.01,-9999.0,North,4.6,-,N/A,,Clear,10,2011-11-10 14:00:00
2:30 PM,84.2,46.4,27,30.01,-9999.0,NNW,3.5,-,N/A,,Clear,330,2011-11-10 14:30:00
3:00 PM,83,44,16,29.92,7,NNW,4.6,,,,Scattered Clouds,340,2011-11-10 15:00:00
3:00 PM,82.4,44.6,26,30.01,6.2,NNW,4.6,-,N/A,,Mostly Cloudy,340,2011-11-10 15:00:00
3:30 PM,84.2,44.6,25,30.01,6.2,NW,4.6,-,N/A,,Mostly Cloudy,320,2011-11-10 15:30:00
4:00 PM,84.2,42.8,23,30.01,6.2,NW,5.8,-,N/A,,Mostly Cloudy,320,2011-11-10 16:00:00
4:30 PM,84.2,42.8,23,30.01,6.2,WNW,6.9,-,N/A,,Mostly Cloudy,300,2011-11-10 16:30:00
5:00 PM,80.6,44.6,28,30.01,6.2,West,5.8,-,N/A,,Mostly Cloudy,260,2011-11-10 17:00:00
5:30 PM,77.0,44.6,32,30.01,5.6,WSW,5.8,-,N/A,,Mostly Cloudy,240,2011-11-10 17:30:00
6:00 PM,72,47,31,29.96,5,West,6.9,,,,Scattered Clouds,260,2011-11-10 18:00:00
6:00 PM,73.4,48.2,41,30.01,5.0,West,6.9,-,N/A,,Mostly Cloudy,260,2011-11-10 18:00:00
6:30 PM,69.8,46.4,43,30.01,5.6,WSW,5.8,-,N/A,,Mostly Cloudy,250,2011-11-10 18:30:00
7:00 PM,69.8,46.4,43,30.04,6.2,West,5.8,-,N/A,,Mostly Cloudy,260,2011-11-10 19:00:00
7:30 PM,68.0,46.4,46,30.04,-9999.0,WSW,4.6,-,N/A,,Clear,240,2011-11-10 19:30:00
8:00 PM,66.2,46.4,49,30.04,-9999.0,WSW,4.6,-,N/A,,Clear,250,2011-11-10 20:00:00
8:30 PM,68.0,44.6,43,30.04,5.6,SSW,5.8,-,N/A,,Unknown,210,2011-11-10 20:30:00
9:00 PM,68,46,34,30.01,6,SW,8.1,,,,Clear,220,2011-11-10 21:00:00
9:00 PM,69.8,46.4,43,30.04,5.6,SW,8.1,-,N/A,,Unknown,220,2011-11-10 21:00:00
9:30 PM,68.0,46.4,46,30.06,5.6,SW,6.9,-,N/A,,Unknown,220,2011-11-10 21:30:00
10:00 PM,68.0,46.4,46,30.06,5.6,SSW,6.9,-,N/A,,Unknown,210,2011-11-10 22:00:00
10:30 PM,68.0,46.4,46,30.04,5.6,SSW,8.1,-,N/A,,Unknown,210,2011-11-10 22:30:00
11:00 PM,64.4,48.2,56,30.06,5.6,Variable,3.5,-,N/A,,Unknown,0,2011-11-10 23:00:00
11:30 PM,62.6,46.4,55,30.06,5.0,Variable,1.2,-,N/A,,Unknown,0,2011-11-10 23:30:00